This is the latest recevied weather packets stored in our database for station/object WV8BRW. If no packets are shown the sender has not sent any weather packets the latest 10 day(s).
| Time | Temp. | Humidity | Pressure | Rain* | Wind** | Luminosity | Snow |
|---|---|---|---|---|---|---|---|
| 1777950242 | 15° C | 85% | 1007.3 hPa | 0 mm | - | 0 W/m² | - |
| 1777949937 | 15° C | 85% | 1007.1 hPa | 0 mm | - | 0 W/m² | - |
| 1777949635 | 15° C | 85% | 1007 hPa | 0 mm | - | 0 W/m² | - |
| 1777949334 | 15.56° C | 85% | 1007.2 hPa | 0 mm | - | 0 W/m² | - |
| 1777949031 | 15° C | 84% | 1007.1 hPa | 0 mm | - | 0 W/m² | - |
| 1777948728 | 15.56° C | 85% | 1007.3 hPa | 0 mm | - | 0 W/m² | - |
| 1777948425 | 15.56° C | 84% | 1007 hPa | 0 mm | - | 0 W/m² | - |
| 1777948122 | 15.56° C | 84% | 1007 hPa | 0 mm | - | 0 W/m² | - |
| 1777947819 | 15.56° C | 85% | 1006.9 hPa | 0 mm | - | 0 W/m² | - |
| 1777947516 | 15.56° C | 85% | 1006.9 hPa | 0 mm | - | 0 W/m² | - |
| 1777947213 | 15.56° C | 85% | 1006.7 hPa | 0 mm | - | 0 W/m² | - |
| 1777946909 | 15.56° C | 84% | 1006.7 hPa | 0 mm | - | 0 W/m² | - |
| 1777946604 | 16.11° C | 83% | 1006.7 hPa | 0 mm | - | 0 W/m² | - |
| 1777946301 | 16.11° C | 83% | 1007 hPa | 0 mm | - | 0 W/m² | - |
| 1777945999 | 16.11° C | 82% | 1006.7 hPa | 0 mm | - | 0 W/m² | - |
| 1777945696 | 16.11° C | 82% | 1006.6 hPa | 0 mm | - | 0 W/m² | - |
| 1777945393 | 16.67° C | 82% | 1006.8 hPa | 0 mm | - | 0 W/m² | - |
| 1777945089 | 16.67° C | 81% | 1006.7 hPa | 0 mm | - | 0 W/m² | - |
| 1777944786 | 16.67° C | 81% | 1006.6 hPa | 0 mm | - | 0 W/m² | - |
| 1777944485 | 16.67° C | 81% | 1006.5 hPa | 0 mm | - | 0 W/m² | - |
| 1777944182 | 16.67° C | 80% | 1006.5 hPa | 0 mm | - | 0 W/m² | - |
| 1777943878 | 17.22° C | 80% | 1006.7 hPa | 0 mm | - | 0 W/m² | - |
| 1777943575 | 17.22° C | 79% | 1006.5 hPa | 0 mm | - | 0 W/m² | - |
| 1777943270 | 17.78° C | 78% | 1006.5 hPa | 0 mm | - | 0 W/m² | - |
| 1777942967 | 17.78° C | 77% | 1006.8 hPa | 0 mm | - | 0 W/m² | - |
* Rain latest hour (hover to see other rain measurements)
** Current wind speed in m/s (hover to see current wind gust speed)